Weather History for Alva, OK

Change the Weather History Date:

Thursday, October 3, 2013

  Actual Average Record
Temperature  
Mean Temperature 78 °F -  
Max Temperature 89 °F 83 °F 100 °F (1951)
Min Temperature 68 °F 54 °F 41 °F (1961)
Cooling Degree Days 14    
Growing Degree Days 28 (Base 50)    
Moisture  
Dew Point 65 °F    
Average Humidity 67    
Maximum Humidity 94    
Minimum Humidity 43    
Precipitation  
Precipitation 0.00 in - - ()
Sea Level Pressure  
Sea Level Pressure 29.74 in    
Wind  
Wind Speed 19 mph (South)    
Max Wind Speed 31 mph    
Max Gust Speed 37 mph    
Visibility 10 miles    
Events      
Averages and records for this station are not official NWS values.
T = Trace of Precipitation, MM = Missing Value Source: NWS Daily Summary

Daily Weather History Graph

Daily Weather History Graph

Search for Another Location

Airport:

Trip Planner

Search our weather history database for the weather conditions in past years. The results will help you decide how hot, cold, wet, or windy it might be!

Date:

Astronomy

Oct. 03, 2013 Rise Set
Actual Time 7:31 AM CDT 7:14 PM CDT
Civil Twilight 7:06 AM CDT 7:40 PM CDT
Nautical Twilight 6:36 AM CDT 8:10 PM CDT
Astronomical Twilight 6:05 AM CDT 8:40 PM CDT
Moon 6:08 AM CDT (10/3) 6:23 PM CDT (10/3)
Length of Visible Light 12h 34m
Length of Day
11h 42m
Waning Crescent, 2% of the Moon is Illuminated
Oct 3
Waning Crescent
Oct 4
New
Oct 11
First Quarter
Oct 18
Full
Oct 26
Last Quarter

Hourly Weather History & Observations

Time (CDT) Temp. Heat Index Dew Point Humidity Pressure Visibility Wind Dir Wind Speed Gust Speed Precip Events Conditions
12:15 AM 71.6 °F - 66.2 °F 83% 29.83 in 10.0 mi South 13.8 mph - N/A   Clear
12:35 AM 71.6 °F - 64.4 °F 78% 29.82 in 10.0 mi SSE 15.0 mph - N/A   Clear
12:55 AM 71.6 °F - 66.2 °F 83% 29.81 in 10.0 mi South 17.3 mph - N/A   Clear
1:15 AM 71.6 °F - 64.4 °F 78% 29.81 in 10.0 mi South 17.3 mph - N/A   Clear
1:35 AM 71.6 °F - 64.4 °F 78% 29.80 in 10.0 mi South 17.3 mph - N/A   Clear
1:55 AM 69.8 °F - 66.2 °F 88% 29.80 in 10.0 mi South 16.1 mph - N/A   Clear
2:15 AM 69.8 °F - 66.2 °F 88% 29.80 in 10.0 mi South 17.3 mph - N/A   Clear
2:35 AM 69.8 °F - 66.2 °F 88% 29.79 in 10.0 mi South 17.3 mph - N/A   Clear
2:55 AM 69.8 °F - 66.2 °F 88% 29.78 in 10.0 mi South 16.1 mph - N/A   Clear
3:15 AM 69.8 °F - 66.2 °F 88% 29.78 in 10.0 mi South 17.3 mph - N/A   Clear
3:35 AM 71.6 °F - 66.2 °F 83% 29.77 in 10.0 mi South 17.3 mph - N/A   Clear
3:55 AM 71.6 °F - 66.2 °F 83% 29.77 in 10.0 mi South 20.7 mph - N/A   Clear
4:15 AM 71.6 °F - 66.2 °F 83% 29.77 in 10.0 mi South 17.3 mph - N/A   Clear
4:35 AM 71.6 °F - 66.2 °F 83% 29.77 in 10.0 mi South 18.4 mph - N/A   Clear
4:55 AM 71.6 °F - 68.0 °F 88% 29.76 in 10.0 mi South 17.3 mph - N/A   Clear
5:15 AM 71.6 °F - 68.0 °F 88% 29.76 in 10.0 mi South 18.4 mph 23.0 mph N/A   Clear
5:35 AM 71.6 °F - 68.0 °F 88% 29.75 in 10.0 mi South 18.4 mph - N/A   Clear
5:55 AM 69.8 °F - 68.0 °F 94% 29.76 in 10.0 mi South 18.4 mph 23.0 mph N/A   Clear
6:15 AM 69.8 °F - 68.0 °F 94% 29.77 in 10.0 mi South 15.0 mph - N/A   Clear
6:35 AM 69.8 °F - 66.2 °F 88% 29.77 in 10.0 mi South 15.0 mph - N/A   Clear
6:55 AM 68.0 °F - 66.2 °F 94% 29.77 in 10.0 mi South 13.8 mph - N/A   Clear
7:15 AM 68.0 °F - 66.2 °F 94% 29.77 in 10.0 mi South 13.8 mph - N/A   Clear
7:35 AM 68.0 °F - 66.2 °F 94% 29.76 in 10.0 mi South 13.8 mph - N/A   Clear
7:55 AM 69.8 °F - 66.2 °F 88% 29.75 in 10.0 mi South 18.4 mph 21.9 mph N/A   Clear
8:15 AM 69.8 °F - 66.2 °F 88% 29.76 in 10.0 mi South 17.3 mph - N/A   Clear
8:35 AM 71.6 °F - 66.2 °F 83% 29.76 in 10.0 mi South 19.6 mph 24.2 mph N/A   Clear
8:55 AM 73.4 °F - 68.0 °F 83% 29.76 in 10.0 mi SSW 24.2 mph - N/A   Clear
9:15 AM 73.4 °F - 68.0 °F 83% 29.77 in 10.0 mi SSW 23.0 mph 27.6 mph N/A   Clear
9:35 AM 75.2 °F - 66.2 °F 73% 29.78 in 10.0 mi SSW 23.0 mph 31.1 mph N/A   Clear
9:55 AM 75.2 °F - 66.2 °F 73% 29.78 in 10.0 mi SSW 26.5 mph 32.2 mph N/A   Partly Cloudy
10:15 AM 77.0 °F - 66.2 °F 69% 29.78 in 10.0 mi SSW 31.1 mph 36.8 mph N/A   Clear
10:35 AM 78.8 °F - 66.2 °F 65% 29.78 in 10.0 mi SSW 26.5 mph 32.2 mph N/A   Clear
10:55 AM 80.6 °F 82.7 °F 66.2 °F 61% 29.78 in 10.0 mi SSW 24.2 mph - N/A   Clear
11:15 AM 80.6 °F 82.7 °F 66.2 °F 61% 29.78 in 10.0 mi SSW 28.8 mph - N/A   Clear
11:35 AM 80.6 °F 82.7 °F 66.2 °F 61% 29.77 in 10.0 mi SSW 25.3 mph 34.5 mph N/A   Clear
11:55 AM 82.4 °F 84.6 °F 66.2 °F 58% 29.77 in 10.0 mi SSW 25.3 mph 32.2 mph N/A   Clear
12:15 PM 84.2 °F 85.6 °F 64.4 °F 51% 29.76 in 10.0 mi SSW 26.5 mph 35.7 mph N/A   Clear
12:35 PM 84.2 °F 86.6 °F 66.2 °F 55% 29.76 in 10.0 mi SSW 24.2 mph 32.2 mph N/A   Clear
12:55 PM 84.2 °F 86.6 °F 66.2 °F 55% 29.75 in 10.0 mi SSW 25.3 mph 31.1 mph N/A   Clear
1:15 PM 86.0 °F 87.3 °F 64.4 °F 48% 29.74 in 10.0 mi SSW 25.3 mph 31.1 mph N/A   Clear
1:35 PM 86.0 °F 87.3 °F 64.4 °F 48% 29.74 in 10.0 mi SSW 27.6 mph 32.2 mph N/A   Clear
1:55 PM 87.8 °F 89.4 °F 64.4 °F 46% 29.73 in 10.0 mi South 24.2 mph 34.5 mph N/A   Clear
2:15 PM 87.8 °F 89.4 °F 64.4 °F 46% 29.72 in 10.0 mi South 26.5 mph 32.2 mph N/A   Clear
2:35 PM 87.8 °F 89.4 °F 64.4 °F 46% 29.71 in 10.0 mi South 24.2 mph 32.2 mph N/A   Clear
2:55 PM 89.6 °F 91.1 °F 64.4 °F 43% 29.71 in 10.0 mi South 24.2 mph 31.1 mph N/A   Clear
3:15 PM 89.6 °F 91.1 °F 64.4 °F 43% 29.70 in 10.0 mi South 25.3 mph 33.4 mph N/A   Clear
3:35 PM 89.6 °F 91.1 °F 64.4 °F 43% 29.70 in 10.0 mi South 25.3 mph 33.4 mph N/A   Clear
3:55 PM 89.6 °F 91.1 °F 64.4 °F 43% 29.69 in 10.0 mi South 25.3 mph 32.2 mph N/A   Clear
4:15 PM 89.6 °F 91.1 °F 64.4 °F 43% 29.68 in 10.0 mi South 28.8 mph 36.8 mph N/A   Clear
4:35 PM 89.6 °F 91.1 °F 64.4 °F 43% 29.68 in 10.0 mi SSW 29.9 mph - N/A   Clear
4:55 PM 89.6 °F 91.1 °F 64.4 °F 43% 29.68 in 10.0 mi SSW 28.8 mph 34.5 mph N/A   Clear
5:15 PM 89.6 °F 91.1 °F 64.4 °F 43% 29.68 in 10.0 mi South 29.9 mph 36.8 mph N/A   Clear
5:35 PM 89.6 °F 91.1 °F 64.4 °F 43% 29.68 in 10.0 mi South 25.3 mph 29.9 mph N/A   Clear
5:55 PM 87.8 °F 88.5 °F 62.6 °F 43% 29.68 in 10.0 mi South 27.6 mph 33.4 mph N/A   Clear
6:15 PM 86.0 °F 86.6 °F 62.6 °F 45% 29.68 in 10.0 mi South 24.2 mph 28.8 mph N/A   Clear
6:35 PM 86.0 °F 86.6 °F 62.6 °F 45% 29.68 in 10.0 mi South 19.6 mph 28.8 mph N/A   Clear
6:55 PM 84.2 °F 85.6 °F 64.4 °F 51% 29.68 in 10.0 mi South 16.1 mph 23.0 mph N/A   Clear
7:15 PM 84.2 °F 85.6 °F 64.4 °F 51% 29.68 in 10.0 mi South 15.0 mph - N/A   Clear
7:35 PM 82.4 °F 83.9 °F 64.4 °F 54% 29.68 in 10.0 mi South 15.0 mph - N/A   Clear
7:55 PM 82.4 °F 83.9 °F 64.4 °F 54% 29.69 in 10.0 mi South 16.1 mph 21.9 mph N/A   Clear
8:15 PM 80.6 °F 82.3 °F 64.4 °F 58% 29.69 in 10.0 mi SSE 13.8 mph - N/A   Clear
8:35 PM 78.8 °F - 64.4 °F 61% 29.69 in 10.0 mi South 15.0 mph - N/A   Clear
8:55 PM 80.6 °F 82.3 °F 64.4 °F 58% 29.70 in 10.0 mi South 16.1 mph - N/A   Clear
9:15 PM 77.0 °F - 62.6 °F 61% 29.70 in 10.0 mi South 15.0 mph - N/A   Clear
9:35 PM 77.0 °F - 62.6 °F 61% 29.70 in 10.0 mi SSE 17.3 mph - N/A   Clear
9:55 PM 77.0 °F - 64.4 °F 65% 29.71 in 10.0 mi SSE 17.3 mph - N/A   Clear
10:15 PM 77.0 °F - 64.4 °F 65% 29.71 in 10.0 mi SSE 17.3 mph - N/A   Clear
10:35 PM 77.0 °F - 64.4 °F 65% 29.71 in 10.0 mi SSE 17.3 mph - N/A   Clear
11:35 PM 77.0 °F - 64.4 °F 65% 29.72 in 10.0 mi South 16.1 mph - N/A   Clear
11:55 PM 77.0 °F - 64.4 °F 65% 29.72 in 10.0 mi South 16.1 mph 20.7 mph N/A   Clear